"Timestamp","TZ","WindDir_Mean (deg)","WindSpd_Mean (km/h)","WindSpd_Min (km/h)","WindSpd_Max (km/h)","Temp_Mean (deg)","RH_Mean (%)","MSLP_Mean (hPa)","Rain_Acc (mm)","Rain_Intensity (mm/h)","Hail_Acc (hits/cm2)","Hail_Intensity (hits/cm2hr)","Solar_Mean (W/m2)"
2021/03/18 00:00:00.005,n,283,3.24,1.8,4.32,19.4,87.8,1018.12,0,0,0,0,0.036583
2021/03/18 00:01:00.002,n,180,2.16,1.8,3.24,19.5,87.7,1018.12,0,0,0,0,0.040092
2021/03/18 00:02:00.000,n,241,3.24,2.88,3.24,19.4,87.6,1018.02,0,0,0,0,0.0383
2021/03/18 00:03:00.000,n,239,2.52,2.52,2.88,19.5,87.7,1018.02,0,0,0,0,0.0383
2021/03/18 00:04:00.000,n,282,1.8,1.08,2.88,19.5,87.8,1018.02,0,0,0,0,0.035706
2021/03/18 00:05:00.007,n,231,2.16,1.44,2.88,19.5,87.8,1018.02,0,0,0,0,0.035706
2021/03/18 00:06:00.004,n,269,2.88,2.16,3.6,19.5,87.7,1018.02,0,0,0,0,0.040092
2021/03/18 00:07:00.001,n,286,6.48,5.76,7.2,19.4,87.5,1017.92,0,0,0,0,0.033951
2021/03/18 00:08:00.014,n,270,3.6,3.6,4.32,19.4,87.5,1017.92,0,0,0,0,0.030518
2021/03/18 00:09:00.012,n,252,2.52,2.52,2.88,19.4,87.5,1017.92,0,0,0,0,0.035706
2021/03/18 00:10:00.000,n,263,3.6,1.44,3.96,19.4,87.8,1017.92,0,0,0,0,0.03746
2021/03/18 00:11:00.000,n,162,1.44,0.72,2.52,19.4,87.8,1017.92,0,0,0,0,0.040092
2021/03/18 00:12:00.002,n,187,5.04,4.32,5.4,19.4,87.8,1017.92,0,0,0,0,0.032234
2021/03/18 00:13:00.000,n,168,3.96,2.88,5.04,19.4,87.8,1017.92,0,0,0,0,0.03746
2021/03/18 00:14:00.000,n,163,2.88,2.16,3.24,19.4,87.8,1017.82,0,0,0,0,0.0383
2021/03/18 00:15:00.010,n,201,6.12,4.68,6.84,19.4,87.8,1017.82,0,0,0,0,0.039215
2021/03/18 00:16:00.007,n,191,5.4,3.96,6.12,19.4,87.8,1017.82,0,0,0,0,0.033112
2021/03/18 00:17:00.004,n,170,6.12,5.76,7.2,19.4,87.9,1017.82,0,0,0,0,0.032234
2021/03/18 00:18:00.001,n,249,1.8,0.72,2.88,19.5,87.9,1017.72,0,0,0,0,0.034866
2021/03/18 00:19:00.000,n,241,3.6,2.16,4.32,19.5,87.9,1017.72,0,0,0,0,0.0383
2021/03/18 00:20:00.000,n,265,2.88,1.08,3.6,19.5,87.9,1017.72,0,0,0,0,0.033951
2021/03/18 00:21:00.000,n,233,1.08,0.72,1.8,19.5,87.9,1017.72,0,0,0,0,0.040092
2021/03/18 00:22:00.000,n,236,0.72,0.72,1.08,19.5,87.9,1017.72,0,0,0,0,0.039215
2021/03/18 00:23:00.005,n,283,4.32,3.24,5.76,19.5,87.9,1017.72,0,0,0,0,0.03746
2021/03/18 00:24:00.002,n,210,2.52,2.16,2.88,19.5,88,1017.72,0,0,0,0,0.03746
2021/03/18 00:25:00.000,n,251,1.08,0,2.52,19.5,88,1017.72,0,0,0,0,0.042686
2021/03/18 00:26:00.013,n,237,3.24,3.24,3.96,19.5,88,1017.72,0,0,0,0,0.03746
2021/03/18 00:27:00.010,n,185,0.72,0.36,1.08,19.6,87.9,1017.72,0,0,0,0,0.039215
2021/03/18 00:28:00.000,n,211,2.88,2.52,4.32,19.5,87.8,1017.72,0,0,0,0,0.042686
2021/03/18 00:29:00.000,n,253,3.24,2.88,3.96,19.5,87.8,1017.72,0,0,0,0,0.03746
2021/03/18 00:30:00.000,n,285,3.96,3.6,4.32,19.5,88,1017.62,0,0,0,0,0.039215
2021/03/18 00:31:00.000,n,198,2.16,1.44,2.52,19.6,88.1,1017.62,0,0,0,0,0.0383
2021/03/18 00:32:00.000,n,303,3.24,2.52,5.04,19.6,87.9,1017.62,0,0,0,0,0.039215
2021/03/18 00:33:00.007,n,259,3.6,2.88,3.6,19.6,87.8,1017.62,0,0,0,0,0.036583
2021/03/18 00:34:00.004,n,245,1.8,1.08,2.16,19.5,87.7,1017.62,0,0,0,0,0.039215
2021/03/18 00:35:00.000,n,6,2.16,2.16,2.16,19.5,87.8,1017.62,0,0,0,0,0.040932
2021/03/18 00:36:00.014,n,273,5.76,5.4,6.12,19.5,87.9,1017.62,0,0,0,0,0.035706
2021/03/18 00:37:00.000,n,243,4.68,4.32,5.04,19.5,87.7,1017.62,0,0,0,0,0.040932
2021/03/18 00:38:00.000,n,280,1.08,0.36,1.44,19.5,87.7,1017.52,0,0,0,0,0.039215
2021/03/18 00:39:00.000,n,263,4.68,4.32,5.4,19.5,87.6,1017.52,0,0,0,0,0.0383
2021/03/18 00:40:00.004,n,185,8.28,7.2,11.88,19.5,87.6,1017.52,0,0,0,0,0.036583
2021/03/18 00:41:00.001,n,271,4.32,4.32,4.68,19.5,87.7,1017.52,0,0,0,0,0.042686
2021/03/18 00:42:00.000,n,274,6.48,5.76,6.84,19.5,87.9,1017.52,0,0,0,0,0.043526
2021/03/18 00:43:00.011,n,263,4.32,3.96,4.68,19.5,87.8,1017.52,0,0,0,0,0.040932
2021/03/18 00:44:00.009,n,247,4.32,3.96,4.68,19.5,87.8,1017.42,0,0,0,0,0.040932
2021/03/18 00:45:00.005,n,264,7.2,6.12,8.28,19.5,87.9,1017.42,0,0,0,0,0.039215
2021/03/18 00:46:00.000,n,248,3.6,3.24,3.6,19.5,87.8,1017.42,0,0,0,0,0.042686
2021/03/18 00:47:00.000,n,264,3.6,2.88,3.96,19.5,87.7,1017.42,0,0,0,0,0.03746
2021/03/18 00:48:00.000,n,240,5.04,3.96,6.48,19.5,87.7,1017.32,0,0,0,0,0.035706
2021/03/18 00:49:00.000,n,246,2.16,1.44,2.52,19.5,87.6,1017.32,0,0,0,0,0.039215
2021/03/18 00:50:00.008,n,242,2.88,2.16,3.6,19.4,87.6,1017.22,0,0,0,0,0.042686
2021/03/18 00:51:00.005,n,270,2.52,2.52,2.88,19.4,87.6,1017.22,0,0,0,0,0.040932
2021/03/18 00:52:00.003,n,278,3.96,3.6,4.32,19.4,87.6,1017.22,0,0,0,0,0.0383
2021/03/18 00:53:00.000,n,260,2.88,2.52,3.24,19.4,87.6,1017.22,0,0,0,0,0.031357
2021/03/18 00:54:00.011,n,286,3.96,3.6,5.04,19.4,87.6,1017.22,0,0,0,0,0.042686
2021/03/18 00:55:00.000,n,269,5.04,3.96,5.4,19.4,87.6,1017.12,0,0,0,0,0.0383
2021/03/18 00:56:00.000,n,252,4.68,3.24,6.12,19.4,87.7,1017.12,0,0,0,0,0.040932
2021/03/18 00:57:00.003,n,271,5.04,4.32,5.4,19.4,87.7,1017.12,0,0,0,0,0.03746
2021/03/18 00:58:00.001,n,247,3.24,2.88,3.96,19.4,87.8,1017.12,0,0,0,0,0.03746
2021/03/18 00:59:00.000,n,245,2.88,2.16,3.6,19.4,87.7,1017.02,0,0,0,0,0.040932
2021/03/18 01:00:00.000,n,279,3.96,3.24,4.32,19.4,87.9,1017.02,0,0,0,0,0.040932
2021/03/18 01:01:00.009,n,271,3.24,2.88,3.96,19.4,87.9,1017.02,0,0,0,0,0.039215
2021/03/18 01:02:00.007,n,245,3.24,2.88,3.6,19.4,87.8,1017.02,0,0,0,0,0.042686
2021/03/18 01:03:00.003,n,278,2.16,1.44,3.24,19.4,87.8,1017.02,0,0,0,0,0.0383
2021/03/18 01:04:00.000,n,281,2.52,2.16,3.24,19.4,87.9,1017.02,0,0,0,0,0.040932
2021/03/18 01:05:00.000,n,293,5.76,5.04,7.2,19.4,87.9,1017.02,0,0,0,0,0.040932
2021/03/18 01:06:00.000,n,274,5.4,5.04,5.76,19.4,87.8,1017.02,0,0,0,0,0.0383
2021/03/18 01:07:00.000,n,259,4.68,3.96,6.12,19.4,87.7,1016.92,0,0,0,0,0.041809
2021/03/18 01:08:00.005,n,271,5.04,4.68,5.76,19.4,87.9,1016.92,0,0,0,0,0.039215
2021/03/18 01:09:00.003,n,277,5.04,4.68,5.4,19.5,88,1016.92,0,0,0,0,0.039215
2021/03/18 01:10:00.000,n,330,1.8,0.72,2.52,19.5,88.1,1016.92,0,0,0,0,0.034866
2021/03/18 01:11:00.013,n,269,4.68,4.32,5.4,19.5,87.9,1016.92,0,0,0,0,0.040092
2021/03/18 01:12:00.011,n,267,4.32,3.6,4.68,19.4,87.6,1016.82,0,0,0,0,0.03746
2021/03/18 01:13:00.000,n,261,3.96,3.24,4.32,19.4,87.5,1016.82,0,0,0,0,0.032234
2021/03/18 01:14:00.000,n,254,2.16,1.44,2.52,19.3,87.5,1016.82,0,0,0,0,0.034866
2021/03/18 01:15:00.002,n,257,2.52,1.8,2.88,19.3,87.7,1016.82,0,0,0,0,0.035706
2021/03/18 01:16:00.000,n,258,3.96,3.24,4.68,19.3,87.7,1016.72,0,0,0,0,0.0383
2021/03/18 01:17:00.000,n,225,1.8,1.08,2.16,19.3,87.6,1016.72,0,0,0,0,0.0383
2021/03/18 01:18:00.009,n,236,1.08,1.08,1.44,19.3,87.6,1016.72,0,0,0,0,0.03746
2021/03/18 01:19:00.006,n,267,2.88,2.88,3.24,19.3,87.6,1016.72,0,0,0,0,0.040092
2021/03/18 01:20:00.002,n,219,1.8,1.44,1.8,19.3,87.6,1016.62,0,0,0,0,0.034866
2021/03/18 01:21:00.002,n,194,1.44,1.08,1.44,19.3,87.7,1016.62,0,0,0,0,0.040092
2021/03/18 01:22:00.000,n,176,1.44,1.44,1.8,19.3,87.7,1016.62,0,0,0,0,0.040092
2021/03/18 01:23:00.000,n,187,1.44,1.08,1.8,19.3,87.8,1016.62,0,0,0,0,0.040092
2021/03/18 01:24:00.000,n,211,2.52,2.16,2.88,19.3,87.8,1016.62,0,0,0,0,0.041809
2021/03/18 01:25:00.000,n,193,3.24,2.16,4.32,19.3,87.8,1016.62,0,0,0,0,0.0383
2021/03/18 01:26:00.004,n,189,5.04,4.32,5.76,19.3,87.8,1016.62,0,0,0,0,0.040092
2021/03/18 01:27:00.001,n,198,5.76,5.4,6.12,19.3,87.7,1016.62,0,0,0,0,0.0383
2021/03/18 01:28:00.000,n,229,2.16,1.8,2.52,19.3,87.7,1016.62,0,0,0,0,0.035706
2021/03/18 01:29:00.012,n,203,3.24,1.44,4.32,19.3,87.8,1016.52,0,0,0,0,0.03746
2021/03/18 01:30:00.011,n,174,1.08,0.72,1.8,19.3,87.8,1016.52,0,0,0,0,0.044441
2021/03/18 01:31:00.000,n,159,3.6,3.6,3.96,19.3,87.8,1016.52,0,0,0,0,0.039215
2021/03/18 01:32:00.000,n,157,1.44,1.08,1.8,19.3,87.8,1016.52,0,0,0,0,0.040092
2021/03/18 01:33:00.001,n,168,4.68,3.96,5.4,19.3,87.8,1016.52,0,0,0,0,0.036583
2021/03/18 01:34:00.000,n,200,3.6,2.52,3.96,19.3,87.8,1016.52,0,0,0,0,0.036583
2021/03/18 01:35:00.000,n,200,3.6,3.24,4.32,19.3,87.8,1016.52,0,0,0,0,0.040932
2021/03/18 01:36:00.008,n,214,2.52,1.8,2.88,19.3,87.8,1016.62,0,0,0,0,0.03746
2021/03/18 01:37:00.005,n,195,5.76,5.04,6.84,19.3,87.7,1016.62,0,0,0,0,0.041809
2021/03/18 01:38:00.003,n,178,6.84,3.96,9.36,19.3,87.7,1016.62,0,0,0,0,0.039215
2021/03/18 01:39:00.000,n,174,4.68,3.96,5.4,19.3,87.7,1016.62,0,0,0,0,0.033951
2021/03/18 01:40:00.000,n,182,8.64,8.64,8.64,19.3,87.7,1016.62,0,0,0,0,0.0383
2021/03/18 01:41:00.000,n,225,3.6,3.24,3.96,19.3,87.7,1016.62,0,0,0,0,0.035706
2021/03/18 01:42:00.000,n,277,2.88,2.52,3.24,19.3,87.7,1016.62,0,0,0,0,0.040932
2021/03/18 01:43:00.005,n,237,2.52,2.16,2.52,19.3,87.7,1016.62,0,0,0,0,0.03746
2021/03/18 01:44:00.003,n,137,1.8,0.36,2.88,19.3,87.7,1016.62,0,0,0,0,0.040092
2021/03/18 01:45:00.000,n,236,3.24,3.24,3.6,19.3,87.7,1016.62,0,0,0,0,0.041809
2021/03/18 01:46:00.000,n,156,3.6,2.16,4.32,19.3,87.7,1016.62,0,0,0,0,0.0383
2021/03/18 01:47:00.010,n,141,5.04,5.04,5.4,19.3,87.6,1016.62,0,0,0,0,0.03746
2021/03/18 01:48:00.008,n,172,3.24,2.88,3.96,19.3,87.6,1016.52,0,0,0,0,0.040932
2021/03/18 01:49:00.000,n,193,3.96,3.24,4.32,19.3,87.6,1016.52,0,0,0,0,0.03746
2021/03/18 01:50:00.001,n,167,8.28,7.2,9.72,19.3,87.6,1016.42,0,0,0,0,0.041809
2021/03/18 01:51:00.000,n,178,2.52,2.16,2.88,19.3,87.6,1016.42,0,0,0,0,0.040092
2021/03/18 01:52:00.000,n,192,1.44,1.08,1.8,19.3,87.6,1016.52,0,0,0,0,0.036583
2021/03/18 01:53:00.000,n,206,4.32,3.24,6.48,19.3,87.6,1016.52,0,0,0,0,0.035706
2021/03/18 01:54:00.006,n,145,2.16,1.8,2.88,19.3,87.5,1016.52,0,0,0,0,0.035706
2021/03/18 01:55:00.003,n,247,2.52,2.16,2.88,19.3,87.5,1016.52,0,0,0,0,0.039215
2021/03/18 01:56:00.000,n,165,3.96,2.16,5.4,19.3,87.5,1016.52,0,0,0,0,0.040092
2021/03/18 01:57:00.013,n,169,0.72,0.36,1.44,19.3,87.5,1016.52,0,0,0,0,0.043526
2021/03/18 01:58:00.000,n,224,1.08,0.72,1.44,19.3,87.5,1016.52,0,0,0,0,0.040932
2021/03/18 01:59:00.000,n,226,2.88,2.52,3.6,19.3,87.5,1016.52,0,0,0,0,0.043526
2021/03/18 02:00:00.000,n,114,1.44,0.36,1.44,19.3,87.6,1016.52,0,0,0,0,0.040092
2021/03/18 02:01:00.002,n,222,3.96,3.6,3.96,19.3,87.6,1016.52,0,0,0,0,0.032234
2021/03/18 02:02:00.000,n,175,5.4,4.68,5.76,19.3,87.6,1016.52,0,0,0,0,0.042686
2021/03/18 02:03:00.000,n,169,3.96,3.6,4.32,19.3,87.5,1016.52,0,0,0,0,0.041809
2021/03/18 02:04:00.010,n,142,3.24,2.88,3.24,19.3,87.5,1016.52,0,0,0,0,0.040932
2021/03/18 02:05:00.007,n,53,1.08,0.72,1.44,19.3,87.5,1016.52,0,0,0,0,0.041809
2021/03/18 02:06:00.004,n,249,1.8,1.8,2.52,19.3,87.5,1016.52,0,0,0,0,0.03746
2021/03/18 02:07:00.002,n,149,2.88,2.52,3.24,19.4,87.5,1016.52,0,0,0,0,0.03746
2021/03/18 02:08:00.000,n,102,1.8,0.72,3.6,19.4,87.5,1016.52,0,0,0,0,0.036583
2021/03/18 02:09:00.000,n,169,0.72,0.36,1.8,19.4,87.6,1016.52,0,0,0,0,0.039215
2021/03/18 02:10:00.000,n,215,5.4,4.68,5.76,19.4,87.5,1016.52,0,0,0,0,0.040092
2021/03/18 02:11:00.006,n,168,4.68,3.6,5.4,19.3,87.4,1016.52,0,0,0,0,0.041809
2021/03/18 02:12:00.004,n,251,1.8,1.8,1.8,19.3,87.4,1016.52,0,0,0,0,0.041809
2021/03/18 02:13:00.001,n,273,2.52,1.44,3.96,19.3,87.4,1016.52,0,0,0,0,0.039215
2021/03/18 02:14:00.014,n,271,3.24,2.88,3.24,19.4,87.7,1016.52,0,0,0,0,0.039215
2021/03/18 02:15:00.011,n,192,1.08,0.36,1.8,19.4,87.7,1016.52,0,0,0,0,0.0383
2021/03/18 02:16:00.000,n,247,2.88,1.8,3.96,19.4,87.7,1016.52,0,0,0,0,0.03746
2021/03/18 02:17:00.000,n,276,3.96,3.24,4.32,19.5,87.9,1016.52,0,0,0,0,0.040092
2021/03/18 02:18:00.005,n,271,3.6,2.88,3.96,19.5,87.9,1016.52,0,0,0,0,0.040932
2021/03/18 02:19:00.002,n,234,3.24,2.88,3.6,19.5,87.6,1016.52,0,0,0,0,0.041809
2021/03/18 02:20:00.000,n,261,3.24,1.44,5.4,19.5,87.4,1016.52,0,0,0,0,0.036583
2021/03/18 02:21:00.000,n,270,3.6,3.24,3.96,19.4,87.3,1016.52,0,0,0,0,0.042686
2021/03/18 02:22:00.010,n,273,3.24,2.88,3.24,19.4,87.3,1016.52,0,0,0,0,0.040932
2021/03/18 02:23:00.008,n,278,4.32,3.96,5.04,19.4,87.2,1016.52,0,0,0,0,0.039215
2021/03/18 02:24:00.005,n,263,3.24,2.88,3.6,19.3,87.4,1016.52,0,0,0,0,0.041809
2021/03/18 02:25:00.000,n,250,1.08,0.36,1.8,19.4,87.4,1016.42,0,0,0,0,0.040092
2021/03/18 02:26:00.000,n,218,2.88,2.16,3.6,19.3,87.3,1016.42,0,0,0,0,0.040932
2021/03/18 02:27:00.000,n,264,3.96,3.6,4.32,19.3,87.2,1016.42,0,0,0,0,0.040092
2021/03/18 02:28:00.000,n,272,2.88,2.16,3.6,19.3,87.2,1016.42,0,0,0,0,0.041809
2021/03/18 02:29:00.006,n,250,3.6,2.88,4.32,19.3,87.3,1016.42,0,0,0,0,0.041809
2021/03/18 02:30:00.003,n,272,2.88,1.8,3.6,19.3,87.4,1016.42,0,0,0,0,0.041809
2021/03/18 02:31:00.000,n,252,2.88,2.52,3.6,19.3,87.7,1016.42,0,0,0,0,0.03746
2021/03/18 02:32:00.013,n,231,3.24,2.52,3.6,19.3,87.5,1016.32,0,0,0,0,0.042686
2021/03/18 02:33:00.011,n,246,2.88,2.16,4.68,19.3,87.5,1016.32,0,0,0,0,0.040092
2021/03/18 02:34:00.000,n,274,4.32,3.6,5.04,19.4,87.8,1016.32,0,0,0,0,0.04528
2021/03/18 02:35:00.000,n,267,2.88,2.52,3.24,19.4,87.7,1016.32,0,0,0,0,0.03746
2021/03/18 02:36:00.001,n,246,2.16,1.8,2.52,19.4,87.5,1016.32,0,0,0,0,0.040092
2021/03/18 02:37:00.000,n,265,2.16,1.8,3.24,19.4,87.7,1016.32,0,0,0,0,0.034866
2021/03/18 02:38:00.000,n,253,2.88,2.16,3.24,19.5,87.8,1016.32,0,0,0,0,0.040092
2021/03/18 02:39:00.000,n,267,1.44,1.08,1.44,19.5,87.5,1016.32,0,0,0,0,0.040092
2021/03/18 02:40:00.008,n,234,2.16,1.8,2.88,19.4,87.4,1016.32,0,0,0,0,0.040932
2021/03/18 02:41:00.005,n,241,1.08,0.72,1.44,19.4,87.4,1016.22,0,0,0,0,0.041809
2021/03/18 02:42:00.002,n,268,2.88,2.52,2.88,19.4,87.3,1016.22,0,0,0,0,0.04528
2021/03/18 02:43:00.000,n,253,3.24,2.52,3.96,19.4,87.3,1016.22,0,0,0,0,0.044441
2021/03/18 02:44:00.000,n,238,2.52,2.16,2.88,19.4,87.5,1016.22,0,0,0,0,0.042686
2021/03/18 02:45:00.000,n,240,0.72,0.36,1.8,19.4,87.5,1016.22,0,0,0,0,0.042686
2021/03/18 02:46:00.000,n,215,0.36,0.36,1.08,19.4,87.5,1016.22,0,0,0,0,0.041809
2021/03/18 02:47:00.004,n,101,2.16,2.16,2.16,19.4,87.4,1016.22,0,0,0,0,0.043526
2021/03/18 02:48:00.002,n,193,3.96,3.6,4.32,19.3,87.3,1016.12,0,0,0,0,0.040092
2021/03/18 02:49:00.000,n,193,4.32,3.96,5.04,19.3,87.3,1016.12,0,0,0,0,0.040932
2021/03/18 02:50:00.011,n,177,5.4,4.32,6.12,19.3,87.3,1016.12,0,0,0,0,0.040932
2021/03/18 02:51:00.009,n,166,5.04,4.68,5.76,19.3,87.3,1016.12,0,0,0,0,0.042686
2021/03/18 02:52:00.000,n,235,4.68,3.6,5.4,19.3,87.2,1016.12,0,0,0,0,0.040092
2021/03/18 02:53:00.002,n,192,5.4,5.04,6.12,19.2,87.2,1016.12,0,0,0,0,0.040092
2021/03/18 02:54:00.000,n,224,4.32,3.6,5.04,19.2,87.2,1016.02,0,0,0,0,0.041809
2021/03/18 02:55:00.000,n,196,4.68,3.96,5.4,19.2,87.3,1016.02,0,0,0,0,0.041809
2021/03/18 02:56:00.000,n,213,5.04,4.32,6.12,19.2,87.2,1016.02,0,0,0,0,0.043526
2021/03/18 02:57:00.007,n,168,1.08,0.36,2.52,19.2,87.3,1016.02,0,0,0,0,0.040932
2021/03/18 02:58:00.004,n,251,2.16,1.8,2.52,19.2,87.3,1016.02,0,0,0,0,0.0383
2021/03/18 02:59:00.001,n,227,0.72,0.72,1.08,19.2,87.3,1016.02,0,0,0,0,0.04528
2021/03/18 03:00:00.015,n,267,1.08,0.72,2.16,19.3,87.4,1016.02,0,0,0,0,0.043526
2021/03/18 03:01:00.000,n,328,1.8,1.08,2.52,19.3,87.5,1016.02,0,0,0,0,0.044441
2021/03/18 03:02:00.000,n,310,1.08,0.36,1.8,19.3,87.6,1016.12,0,0,0,0,0.042686
2021/03/18 03:03:00.000,n,290,2.52,1.8,3.24,19.3,87.6,1016.12,0,0,0,0,0.042686
2021/03/18 03:04:00.000,n,277,3.96,2.88,5.04,19.4,87.7,1016.12,0,0,0,0,0.041809
2021/03/18 03:05:00.005,n,269,2.88,2.88,3.6,19.4,87.7,1016.12,0,0,0,0,0.039215
2021/03/18 03:06:00.002,n,248,3.6,3.24,3.96,19.4,87.3,1016.12,0,0,0,0,0.042686
2021/03/18 03:07:00.000,n,262,4.32,3.96,4.32,19.4,87.2,1016.12,0,0,0,0,0.043526
2021/03/18 03:08:00.012,n,246,5.04,4.32,5.76,19.3,87.2,1016.12,0,0,0,0,0.042686
2021/03/18 03:09:00.010,n,276,2.88,2.52,3.6,19.3,87.1,1016.12,0,0,0,0,0.042686
2021/03/18 03:10:00.000,n,272,4.32,3.6,4.68,19.3,87.1,1016.12,0,0,0,0,0.043526
2021/03/18 03:11:00.002,n,267,3.24,3.24,3.6,19.3,87.6,1016.12,0,0,0,0,0.041809
2021/03/18 03:12:00.000,n,254,5.76,3.6,7.56,19.4,87.7,1016.12,0,0,0,0,0.04528
2021/03/18 03:13:00.000,n,245,3.96,3.6,4.32,19.4,87.3,1016.12,0,0,0,0,0.043526
2021/03/18 03:14:00.000,n,249,3.24,2.52,3.96,19.3,87.1,1016.12,0,0,0,0,0.042686
2021/03/18 03:15:00.006,n,277,4.68,4.32,5.4,19.3,87,1016.12,0,0,0,0,0.0383
2021/03/18 03:16:00.004,n,262,3.6,2.88,3.96,19.3,87.1,1016.12,0,0,0,0,0.036583
2021/03/18 03:17:00.000,n,264,3.24,2.88,3.6,19.3,87.1,1016.12,0,0,0,0,0.033951
2021/03/18 03:18:00.014,n,262,5.76,5.4,6.48,19.2,87,1016.12,0,0,0,0,0.041809
2021/03/18 03:19:00.000,n,245,5.76,5.4,6.12,19.2,87,1016.12,0,0,0,0,0.042686
2021/03/18 03:20:00.000,n,295,4.32,2.88,6.84,19.2,87.3,1016.12,0,0,0,0,0.039215
2021/03/18 03:21:00.000,n,263,3.96,3.6,4.32,19.3,87.4,1016.22,0,0,0,0,0.0383
2021/03/18 03:22:00.005,n,266,3.6,1.08,5.04,19.3,87.3,1016.22,0,0,0,0,0.033112
2021/03/18 03:23:00.002,n,262,3.6,2.88,3.96,19.3,87.1,1016.22,0,0,0,0,0.03746
2021/03/18 03:24:00.000,n,257,2.16,2.16,2.52,19.3,87.1,1016.22,0,0,0,0,0.03746
2021/03/18 03:25:00.012,n,271,3.6,2.88,4.32,19.3,87.2,1016.22,0,0,0,0,0.042686
2021/03/18 03:26:00.009,n,271,1.8,1.08,2.16,19.3,87.1,1016.22,0,0,0,0,0.040932
2021/03/18 03:27:00.005,n,259,3.6,2.88,3.96,19.2,87,1016.22,0,0,0,0,0.042686
2021/03/18 03:28:00.000,n,281,4.32,3.96,5.04,19.2,87.1,1016.22,0,0,0,0,0.040932
2021/03/18 03:29:00.000,n,265,4.68,4.32,5.04,19.2,87.2,1016.22,0,0,0,0,0.03746
2021/03/18 03:30:00.000,n,220,2.52,2.16,3.24,19.2,87.1,1016.22,0,0,0,0,0.036583
2021/03/18 03:31:00.000,n,249,3.24,3.24,3.6,19.2,87.1,1016.22,0,0,0,0,0.041809
2021/03/18 03:32:00.007,n,278,1.44,0.72,2.52,19.2,87.1,1016.22,0,0,0,0,0.042686
2021/03/18 03:33:00.004,n,272,3.96,3.6,5.04,19.2,87.1,1016.22,0,0,0,0,0.043526
2021/03/18 03:34:00.001,n,264,3.24,1.8,3.96,19.2,87.3,1016.22,0,0,0,0,0.036583
2021/03/18 03:35:00.014,n,261,1.44,0.72,1.8,19.2,87.2,1016.22,0,0,0,0,0.036583
2021/03/18 03:36:00.011,n,255,3.6,3.24,3.96,19.2,87.1,1016.22,0,0,0,0,0.039215
2021/03/18 03:37:00.000,n,156,5.4,5.04,5.76,19.2,87.1,1016.12,0,0,0,0,0.03746
2021/03/18 03:38:00.000,n,283,0.72,0.36,1.44,19.2,87.1,1016.12,0,0,0,0,0.036583
2021/03/18 03:39:00.002,n,228,0.72,0.36,1.08,19.2,87.2,1016.12,0,0,0,0,0.03746
2021/03/18 03:40:00.000,n,296,2.88,1.8,3.96,19.2,87.3,1016.02,0,0,0,0,0.041809
2021/03/18 03:41:00.000,n,293,3.6,3.24,3.96,19.2,87.4,1016.02,0,0,0,0,0.03746
2021/03/18 03:42:00.009,n,230,2.52,1.44,3.6,19.2,87.3,1016.02,0,0,0,0,0.041809
2021/03/18 03:43:00.006,n,147,2.16,1.08,2.88,19.2,87.2,1016.02,0,0,0,0,0.036583
2021/03/18 03:44:00.003,n,184,2.52,2.52,2.88,19.2,87.1,1016.02,0,0,0,0,0.039215
2021/03/18 03:45:00.000,n,277,3.6,1.8,5.4,19.2,87.1,1016.02,0,0,0,0,0.034866
2021/03/18 03:46:00.000,n,311,1.08,0.36,1.8,19.2,87,1016.02,0,0,0,0,0.0383
2021/03/18 03:47:00.000,n,137,1.44,1.08,2.16,19.2,87.2,1016.02,0,0,0,0,0.036583
2021/03/18 03:48:00.000,n,202,4.32,3.96,5.04,19.2,87,1016.02,0,0,0,0,0.03746
2021/03/18 03:49:00.005,n,179,5.04,3.6,6.48,19.2,87,1016.02,0,0,0,0,0.039215
2021/03/18 03:50:00.002,n,148,2.52,2.16,2.88,19.2,86.9,1016.02,0,0,0,0,0.03746
2021/03/18 03:51:00.000,n,212,3.6,2.16,5.04,19.2,86.9,1016.02,0,0,0,0,0.035706
2021/03/18 03:52:00.012,n,209,2.16,1.8,2.52,19.2,87,1016.02,0,0,0,0,0.040932
2021/03/18 03:53:00.010,n,269,3.6,2.88,3.96,19.2,87,1016.02,0,0,0,0,0.040092
2021/03/18 03:54:00.007,n,302,3.24,3.24,3.96,19.2,87.3,1016.02,0,0,0,0,0.040932
2021/03/18 03:55:00.000,n,258,7.2,6.48,7.92,19.2,87,1016.12,0,0,0,0,0.041809
2021/03/18 03:56:00.001,n,222,1.44,0.72,1.8,19.2,86.9,1016.12,0,0,0,0,0.042686
2021/03/18 03:57:00.000,n,128,0.72,0.36,1.8,19.2,87,1016.12,0,0,0,0,0.04528
2021/03/18 03:58:00.000,n,314,0.36,0.36,0.36,19.2,87,1016.12,0,0,0,0,0.039215
2021/03/18 03:59:00.000,n,301,4.32,3.96,5.04,19.2,87.2,1016.12,0,0,0,0,0.03746
2021/03/18 04:00:00.006,n,212,2.16,1.8,2.88,19.2,87.1,1016.12,0,0,0,0,0.035706
2021/03/18 04:01:00.003,n,134,2.52,2.16,2.52,19.2,87,1016.12,0,0,0,0,0.040092
2021/03/18 04:02:00.000,n,201,2.16,1.8,2.52,19.2,87,1016.12,0,0,0,0,0.033951
2021/03/18 04:03:00.014,n,161,0.36,0.36,0.36,19.2,86.9,1016.12,0,0,0,0,0.04528
2021/03/18 04:04:00.000,n,148,1.44,1.44,1.44,19.2,87,1016.12,0,0,0,0,0.033951
2021/03/18 04:05:00.000,n,231,2.16,1.44,2.88,19.2,87,1016.22,0,0,0,0,0.040932
2021/03/18 04:06:00.000,n,267,1.44,1.08,1.44,19.2,86.9,1016.22,0,0,0,0,0.041809
2021/03/18 04:07:00.004,n,167,2.16,1.44,2.52,19.2,87,1016.22,0,0,0,0,0.040932
2021/03/18 04:08:00.002,n,169,1.44,1.08,1.8,19.2,87,1016.22,0,0,0,0,0.040092
2021/03/18 04:09:00.000,n,284,3.96,3.24,4.68,19.2,87.1,1016.22,0,0,0,0,0.0383
2021/03/18 04:10:00.012,n,248,3.6,2.16,5.04,19.2,87.2,1016.22,0,0,0,0,0.039215
2021/03/18 04:11:00.009,n,110,1.08,0.36,1.8,19.3,87.3,1016.32,0,0,0,0,0.0383
2021/03/18 04:12:00.005,n,231,2.88,0.72,4.32,19.3,87.1,1016.32,0,0,0,0,0.039215
2021/03/18 04:13:00.000,n,287,2.88,2.52,3.24,19.3,87.1,1016.32,0,0,0,0,0.040932
2021/03/18 04:14:00.001,n,229,3.24,3.24,3.6,19.3,87.1,1016.32,0,0,0,0,0.039215
2021/03/18 04:15:00.000,n,258,0.36,0.36,0.36,19.3,86.9,1016.32,0,0,0,0,0.0383
2021/03/18 04:16:00.000,n,281,6.12,5.76,6.48,19.2,86.9,1016.32,0,0,0,0,0.0383
2021/03/18 04:17:00.008,n,266,1.8,0.72,2.52,19.2,86.8,1016.32,0,0,0,0,0.040092
2021/03/18 04:18:00.006,n,23,1.44,0.36,3.24,19.2,86.8,1016.42,0,0,0,0,0.040932
2021/03/18 04:19:00.002,n,272,3.96,3.24,4.32,19.2,87.1,1016.42,0,0,0,0,0.039215
2021/03/18 04:20:00.000,n,254,1.8,1.08,2.52,19.3,87.3,1016.42,0,0,0,0,0.035706
2021/03/18 04:21:00.013,n,286,2.52,1.8,3.6,19.3,87.2,1016.42,0,0,0,0,0.041809
2021/03/18 04:22:00.000,n,350,1.8,0.72,2.88,19.3,86.9,1016.42,0,0,0,0,0.039215
2021/03/18 04:23:00.000,n,241,7.56,6.84,9,19.3,86.7,1016.42,0,0,0,0,0.043526
2021/03/18 04:24:00.004,n,260,5.4,4.68,6.48,19.2,86.7,1016.42,0,0,0,0,0.041809
2021/03/18 04:25:00.001,n,255,1.44,1.08,1.8,19.3,87,1016.42,0,0,0,0,0.042686
2021/03/18 04:26:00.000,n,288,2.16,0.72,3.24,19.3,87,1016.42,0,0,0,0,0.0383
2021/03/18 04:27:00.000,n,276,4.32,3.96,4.68,19.3,87,1016.42,0,0,0,0,0.040932
2021/03/18 04:28:00.009,n,268,6.84,5.4,7.56,19.3,86.7,1016.32,0,0,0,0,0.044441
2021/03/18 04:29:00.007,n,176,1.8,1.44,1.8,19.2,86.7,1016.32,0,0,0,0,0.042686
2021/03/18 04:30:00.004,n,211,1.8,1.44,1.8,19.2,86.7,1016.32,0,0,0,0,0.040932
2021/03/18 04:31:00.002,n,353,0.36,0.36,0.72,19.2,86.7,1016.32,0,0,0,0,0.04528
2021/03/18 04:32:00.000,n,140,2.88,1.8,3.24,19.2,86.7,1016.32,0,0,0,0,0.046158
2021/03/18 04:33:00.000,n,208,2.52,2.16,2.52,19.2,86.8,1016.32,0,0,0,0,0.042686
2021/03/18 04:34:00.000,n,183,3.6,3.24,3.96,19.2,86.8,1016.32,0,0,0,0,0.039215
2021/03/18 04:35:00.008,n,188,0.72,0.72,1.08,19.2,86.7,1016.32,0,0,0,0,0.03746
2021/03/18 04:36:00.005,n,271,4.32,4.32,4.68,19.2,86.8,1016.32,0,0,0,0,0.039215
2021/03/18 04:37:00.001,n,284,3.96,2.52,5.04,19.2,87,1016.32,0,0,0,0,0.041809
2021/03/18 04:38:00.015,n,273,4.32,3.96,4.68,19.3,87.2,1016.32,0,0,0,0,0.040932
2021/03/18 04:39:00.012,n,265,3.6,3.24,4.32,19.3,87.2,1016.32,0,0,0,0,0.03746
2021/03/18 04:40:00.000,n,261,3.24,2.88,3.6,19.3,87,1016.32,0,0,0,0,0.03746
2021/03/18 04:41:00.000,n,268,3.24,2.88,3.6,19.3,87,1016.32,0,0,0,0,0.0383
2021/03/18 04:42:00.002,n,204,2.52,1.8,2.88,19.3,86.8,1016.32,0,0,0,0,0.041809
2021/03/18 04:43:00.000,n,296,3.6,2.16,5.04,19.3,86.7,1016.32,0,0,0,0,0.042686
2021/03/18 04:44:00.000,n,251,1.8,1.44,2.16,19.3,86.7,1016.32,0,0,0,0,0.042686
2021/03/18 04:45:00.009,n,227,2.52,2.16,2.52,19.3,86.7,1016.32,0,0,0,0,0.044441
2021/03/18 04:46:00.006,n,226,2.16,2.16,2.52,19.3,86.7,1016.32,0,0,0,0,0.041809
2021/03/18 04:47:00.004,n,270,3.96,3.96,4.32,19.3,86.8,1016.22,0,0,0,0,0.042686
2021/03/18 04:48:00.001,n,291,3.24,2.16,3.96,19.3,86.9,1016.22,0,0,0,0,0.044441
2021/03/18 04:49:00.000,n,263,2.88,2.88,3.24,19.3,86.8,1016.32,0,0,0,0,0.041809
2021/03/18 04:50:00.000,n,216,0.72,0.36,1.44,19.3,86.7,1016.32,0,0,0,0,0.040932
2021/03/18 04:51:00.000,n,265,3.24,3.24,3.6,19.3,86.8,1016.32,0,0,0,0,0.0383
2021/03/18 04:52:00.005,n,250,3.24,2.88,3.6,19.3,86.9,1016.32,0,0,0,0,0.040932
2021/03/18 04:53:00.002,n,256,3.24,2.88,3.96,19.3,86.8,1016.32,0,0,0,0,0.042686
2021/03/18 04:54:00.000,n,237,2.88,2.16,3.24,19.3,86.8,1016.32,0,0,0,0,0.042686
2021/03/18 04:55:00.000,n,222,1.8,1.08,3.24,19.3,86.7,1016.32,0,0,0,0,0.041809
2021/03/18 04:56:00.009,n,267,2.52,2.52,2.88,19.3,86.9,1016.32,0,0,0,0,0.040932